Marshfield, WI

8:03 AM CST on November 21, 2019 (GMT -0600)
Marshfield Municipal

Weather History for KMFI - September, 2019

Change the Weather History Date:

Saturday, September 28, 2019

  Actual Average Record
Temperature  
Mean Temperature 56 °F -  
Max Temperature 63 °F 65 °F 82 °F (1979)
Min Temperature 48 °F 40 °F 20 °F (1976)
Degree Days  
Heating Degree Days 10    
Growing Degree Days 6 (Base 50)    
Moisture  
Dew Point 44 °F    
Average Humidity 71    
Maximum Humidity 89    
Minimum Humidity 46    
Precipitation  
Precipitation 0.00 in - - ()
Sea Level Pressure  
Sea Level Pressure 30.16 in    
Wind  
Wind Speed 8 mph (NE)    
Max Wind Speed 12 mph    
Max Gust Speed 17 mph    
Visibility 10 miles    
Events      
Averages and records for this station are not official NWS values.
T = Trace of Precipitation, MM = Missing Value Source: NWS Daily Summary

Daily Weather History Graph

Daily Weather History Graph

Search for Another Location

Airport or City:

Astronomy

Sep. 28, 2019 Rise Set
Actual Time 6:54 AM CDT 6:47 PM CDT
Civil Twilight 6:25 AM CDT 7:16 PM CDT
Nautical Twilight 5:51 AM CDT 7:50 PM CDT
Astronomical Twilight 5:17 AM CDT 8:24 PM CDT
Moon 6:27 AM CDT (9/28) 7:14 PM CDT (9/28)
Length of Visible Light 12h 50m
Length of Day
11h 52m
Waning Crescent, 0% of the Moon is Illuminated
Sep 28
Waning Crescent
Sep 28
New
Oct 5
First Quarter
Oct 13
Full
Oct 21
Last Quarter

Hourly Weather History & Observations

Time (CDT) Temp. Dew Point Humidity Pressure Visibility Wind Dir Wind Speed Gust Speed Precip Events Conditions
12:54 AM 52.0 °F 46.9 °F 83% 29.93 in 10.0 mi NNE 9.2 mph - N/A   Clear
1:54 AM 51.1 °F 46.9 °F 86% 29.96 in 10.0 mi North 8.1 mph - N/A   Clear
2:54 AM 48.9 °F 45.0 °F 86% 29.97 in 10.0 mi NNE 5.8 mph - N/A   Clear
3:54 AM 48.9 °F 45.0 °F 86% 30.00 in 10.0 mi North 9.2 mph - N/A   Clear
4:54 AM 48.0 °F 45.0 °F 89% 30.04 in 10.0 mi North 6.9 mph - N/A   Clear
5:54 AM 48.9 °F 45.0 °F 86% 30.05 in 10.0 mi NNE 8.1 mph - N/A   Clear
6:54 AM 48.9 °F 45.0 °F 86% 30.09 in 10.0 mi NNE 8.1 mph - N/A   Scattered Clouds
7:54 AM 50.0 °F 45.0 °F 83% 30.12 in 10.0 mi North 6.9 mph - N/A   Scattered Clouds
8:54 AM 52.0 °F 46.0 °F 80% 30.14 in 10.0 mi NNE 6.9 mph - N/A   Clear
9:54 AM 54.0 °F 45.0 °F 72% 30.18 in 10.0 mi ENE 11.5 mph - N/A   Clear
10:54 AM 57.0 °F 45.0 °F 64% 30.19 in 10.0 mi Variable 5.8 mph - N/A   Clear
11:15 AM 57.0 °F 45.0 °F 64% 30.18 in 10.0 mi North - - N/A   Mostly Cloudy
11:54 AM 57.0 °F 45.0 °F 64% 30.21 in 10.0 mi NNE 8.1 mph - N/A   Overcast
12:18 PM 57.9 °F 46.0 °F 65% 30.20 in 10.0 mi North 10.4 mph 17.3 mph N/A   Overcast
12:54 PM 59.0 °F 45.0 °F 60% 30.22 in 10.0 mi NE 6.9 mph - N/A   Mostly Cloudy
2:54 PM 62.1 °F 44.1 °F 52% 30.22 in 10.0 mi NE 6.9 mph - N/A   Clear
3:54 PM 63.0 °F 43.0 °F 48% 30.22 in 10.0 mi ENE 8.1 mph - N/A   Clear
4:54 PM 62.1 °F 41.0 °F 46% 30.22 in 10.0 mi East 9.2 mph - N/A   Clear
5:54 PM 59.0 °F 41.0 °F 51% 30.23 in 10.0 mi East 9.2 mph - N/A   Clear
6:54 PM 54.0 °F 42.1 °F 64% 30.25 in 10.0 mi East 5.8 mph - N/A   Clear
7:54 PM 53.1 °F 41.0 °F 64% 30.27 in 10.0 mi ESE 5.8 mph - N/A   Clear
8:54 PM 51.1 °F 43.0 °F 74% 30.27 in 10.0 mi ESE 6.9 mph - N/A   Clear
9:54 PM 50.0 °F 43.0 °F 77% 30.29 in 10.0 mi East 5.8 mph - N/A   Clear
10:54 PM 51.1 °F 44.1 °F 77% 30.30 in 10.0 mi ESE 6.9 mph - N/A   Clear
11:54 PM 50.0 °F 43.0 °F 77% 30.28 in 10.0 mi ESE 9.2 mph - N/A   Clear